• In United Kingdom
  • List of Countries
  • For 7 days
  • Water Temperature
  • Satellite Maps
  • Weather Map
  • Weather Widgets
  • user-avatar
    Login

    Hourly Weather Seyðisfjörður

    Today, 20 June, Wednesday

    Time Temperature Precipitation Wind Pressure Humidity
    00:00 +4°C° 0.1 mm 3 mps 750 mmHg 79%
    01:00 +4°C° 0.1 mm 3 mps 750 mmHg 79%
    02:00 +4°C° 0.1 mm 3 mps 750 mmHg 79%
    03:00 +4°C° 0.1 mm 3 mps 750 mmHg 76%
    04:00 +4°C° 0.1 mm 4 mps 751 mmHg 73%
    05:00 +5°C° 0 mm 4 mps 751 mmHg 68%
    06:00 +5°C° 0 mm 4 mps 751 mmHg 64%
    07:00 +6°C° 0 mm 4 mps 752 mmHg 59%
    08:00 +7°C° 0 mm 5 mps 752 mmHg 55%
    09:00 +7°C° 0 mm 5 mps 752 mmHg 53%
    10:00 +8°C° 0 mm 5 mps 753 mmHg 50%
    11:00 +9°C° 0 mm 5 mps 753 mmHg 45%
    12:00 +10°C° 0 mm 6 mps 754 mmHg 44%
    13:00 +10°C° 0 mm 6 mps 754 mmHg 44%
    14:00 +10°C° 0 mm 6 mps 754 mmHg 43%
    15:00 +10°C° 0 mm 6 mps 755 mmHg 43%
    16:00 +10°C° 0 mm 6 mps 755 mmHg 42%
    17:00 +10°C° 0 mm 6 mps 756 mmHg 42%
    18:00 +9°C° 0 mm 5 mps 756 mmHg 42%
    19:00 +9°C° 0 mm 5 mps 757 mmHg 43%
    20:00 +10°C° 0 mm 4 mps 757 mmHg 43%
    21:00 +8°C° 0 mm 4 mps 758 mmHg 47%
    22:00 +8°C° 0 mm 3 mps 758 mmHg 50%
    23:00 +7°C° 0 mm 2 mps 759 mmHg 54%

    Tomorrow, 21 June, Thursday

    Time Temperature Precipitation Wind Pressure Humidity
    00:00 +7°C° 0 mm 2 mps 759 mmHg 53%
    01:00 +6°C° 0 mm 2 mps 759 mmHg 51%
    02:00 +6°C° 0 mm 2 mps 759 mmHg 50%
    03:00 +7°C° 0 mm 2 mps 759 mmHg 48%
    04:00 +8°C° 0 mm 2 mps 760 mmHg 46%
    05:00 +9°C° 0 mm 2 mps 760 mmHg 44%
    06:00 +10°C° 0 mm 2 mps 760 mmHg 42%
    07:00 +13°C° 0 mm 2 mps 760 mmHg 39%
    08:00 +14°C° 0 mm 2 mps 760 mmHg 36%
    09:00 +14°C° 0 mm 3 mps 760 mmHg 35%
    10:00 +15°C° 0 mm 4 mps 760 mmHg 34%
    11:00 +16°C° 0 mm 5 mps 760 mmHg 33%
    12:00 +16°C° 0 mm 5 mps 760 mmHg 33%
    13:00 +17°C° 0 mm 5 mps 759 mmHg 33%
    14:00 +17°C° 0 mm 6 mps 759 mmHg 33%
    15:00 +17°C° 0 mm 6 mps 759 mmHg 34%
    16:00 +17°C° 0 mm 6 mps 759 mmHg 34%
    17:00 +17°C° 0 mm 6 mps 758 mmHg 35%
    18:00 +17°C° 0 mm 6 mps 758 mmHg 43%
    19:00 +16°C° 0 mm 5 mps 758 mmHg 50%
    20:00 +15°C° 0 mm 5 mps 757 mmHg 57%
    21:00 +14°C° 0.2 mm 5 mps 757 mmHg 62%
    22:00 +14°C° 0.2 mm 4 mps 757 mmHg 68%
    23:00 +13°C° 0.2 mm 4 mps 757 mmHg 73%

    Day after tomorrow, 22 June, Friday

    Time Temperature Precipitation Wind Pressure Humidity
    00:00 +13°C° 0.1 mm 4 mps 756 mmHg 74%
    01:00 +13°C° 0.1 mm 4 mps 756 mmHg 76%
    02:00 +12°C° 0.1 mm 3 mps 756 mmHg 77%
    03:00 +13°C° 0 mm 4 mps 755 mmHg 76%
    04:00 +13°C° 0 mm 4 mps 755 mmHg 75%
    05:00 +13°C° 0 mm 4 mps 754 mmHg 73%
    06:00 +14°C° 0 mm 4 mps 754 mmHg 68%
    07:00 +15°C° 0 mm 4 mps 754 mmHg 63%
    08:00 +17°C° 0 mm 4 mps 754 mmHg 58%
    09:00 +18°C° 0 mm 4 mps 753 mmHg 55%
    10:00 +19°C° 0 mm 4 mps 753 mmHg 51%
    11:00 +20°C° 0 mm 5 mps 753 mmHg 48%
    12:00 +20°C° 0 mm 5 mps 753 mmHg 47%
    13:00 +20°C° 0 mm 5 mps 753 mmHg 46%
    14:00 +20°C° 0 mm 5 mps 753 mmHg 45%
    15:00 +19°C° 0 mm 5 mps 754 mmHg 48%
    16:00 +17°C° 0 mm 5 mps 754 mmHg 50%
    17:00 +16°C° 0 mm 5 mps 754 mmHg 52%
    18:00 +15°C° 0 mm 5 mps 754 mmHg 55%
    19:00 +14°C° 0 mm 4 mps 754 mmHg 57%
    20:00 +13°C° 0 mm 3 mps 754 mmHg 59%
    21:00 +12°C° 0 mm 3 mps 755 mmHg 63%
    22:00 +13°C° 0 mm 2 mps 755 mmHg 68%
    23:00 +12°C° 0 mm 2 mps 755 mmHg 72%

    23 June, Saturday

    Time Temperature Precipitation Wind Pressure Humidity
    00:00 +10°C° 0 mm 2 mps 755 mmHg 74%
    01:00 +10°C° 0 mm 2 mps 755 mmHg 76%
    02:00 +9°C° 0 mm 2 mps 755 mmHg 77%
    03:00 +10°C° 0 mm 2 mps 755 mmHg 76%
    04:00 +10°C° 0 mm 2 mps 755 mmHg 74%
    05:00 +11°C° 0 mm 3 mps 754 mmHg 72%
    06:00 +12°C° 0 mm 3 mps 754 mmHg 68%
    07:00 +12°C° 0 mm 3 mps 754 mmHg 65%
    08:00 +13°C° 0 mm 3 mps 753 mmHg 61%
    09:00 +14°C° 0 mm 4 mps 753 mmHg 59%
    10:00 +15°C° 0 mm 4 mps 752 mmHg 57%
    11:00 +17°C° 0 mm 4 mps 752 mmHg 54%
    12:00 +16°C° 0 mm 5 mps 751 mmHg 55%
    13:00 +16°C° 0 mm 5 mps 750 mmHg 56%
    14:00 +16°C° 0 mm 5 mps 750 mmHg 57%
    15:00 +15°C° 0.4 mm 6 mps 749 mmHg 64%
    16:00 +14°C° 0.4 mm 6 mps 748 mmHg 71%
    17:00 +13°C° 0.4 mm 6 mps 747 mmHg 78%
    18:00 +13°C° 0.8 mm 6 mps 746 mmHg 81%
    19:00 +12°C° 0.8 mm 5 mps 745 mmHg 84%
    20:00 +12°C° 0.8 mm 5 mps 744 mmHg 87%
    21:00 +12°C° 0 mm 5 mps 744 mmHg 87%
    22:00 +12°C° 0 mm 5 mps 743 mmHg 86%
    23:00 +12°C° 0 mm 5 mps 743 mmHg 86%

    24 June, Sunday

    Time Temperature Precipitation Wind Pressure Humidity
    00:00 +11°C° 0 mm 6 mps 743 mmHg 84%
    01:00 +11°C° 0 mm 6 mps 743 mmHg 82%
    02:00 +11°C° 0 mm 6 mps 743 mmHg 79%
    03:00 +13°C° 0 mm 6 mps 743 mmHg 76%
    04:00 +14°C° 0 mm 7 mps 744 mmHg 73%
    05:00 +14°C° 0 mm 7 mps 744 mmHg 69%
    06:00 +15°C° 0 mm 6 mps 745 mmHg 65%
    07:00 +16°C° 0 mm 5 mps 745 mmHg 61%
    08:00 +18°C° 0 mm 4 mps 746 mmHg 58%
    09:00 +18°C° 0 mm 4 mps 746 mmHg 56%
    10:00 +18°C° 0 mm 3 mps 746 mmHg 54%
    11:00 +18°C° 0 mm 3 mps 747 mmHg 53%
    12:00 +18°C° 0 mm 3 mps 747 mmHg 55%
    13:00 +18°C° 0 mm 3 mps 747 mmHg 57%
    14:00 +18°C° 0 mm 3 mps 747 mmHg 59%
    15:00 +17°C° 0 mm 3 mps 746 mmHg 63%
    16:00 +15°C° 0 mm 4 mps 746 mmHg 68%
    17:00 +14°C° 0 mm 4 mps 745 mmHg 72%
    18:00 +13°C° 0.4 mm 5 mps 744 mmHg 77%
    19:00 +13°C° 0.4 mm 5 mps 744 mmHg 82%
    20:00 +12°C° 0.4 mm 5 mps 743 mmHg 88%
    21:00 +11°C° 0.1 mm 6 mps 742 mmHg 88%
    22:00 +11°C° 0.1 mm 6 mps 741 mmHg 88%
    23:00 +11°C° 0.1 mm 7 mps 740 mmHg 88%

    25 June, Monday

    Time Temperature Precipitation Wind Pressure Humidity
    00:00 +11°C° 0 mm 8 mps 740 mmHg 83%
    01:00 +11°C° 0 mm 8 mps 740 mmHg 78%
    02:00 +11°C° 0 mm 9 mps 740 mmHg 74%
    03:00 +11°C° 0 mm 10 mps 741 mmHg 68%
    04:00 +11°C° 0 mm 10 mps 742 mmHg 63%
    05:00 +9°C° 0 mm 11 mps 742 mmHg 57%
    06:00 +11°C° 0 mm 11 mps 743 mmHg 53%
    07:00 +12°C° 0 mm 10 mps 744 mmHg 50%
    08:00 +13°C° 0 mm 9 mps 745 mmHg 46%
    09:00 +13°C° 0 mm 9 mps 746 mmHg 44%
    10:00 +15°C° 0 mm 9 mps 747 mmHg 43%
    11:00 +16°C° 0 mm 9 mps 747 mmHg 41%
    12:00 +15°C° 0 mm 9 mps 747 mmHg 43%
    13:00 +15°C° 0 mm 9 mps 747 mmHg 45%
    14:00 +15°C° 0 mm 8 mps 748 mmHg 46%
    15:00 +15°C° 0 mm 8 mps 748 mmHg 46%
    16:00 +15°C° 0 mm 8 mps 748 mmHg 46%
    17:00 +15°C° 0 mm 8 mps 747 mmHg 47%
    18:00 +14°C° 0 mm 7 mps 747 mmHg 50%
    19:00 +12°C° 0 mm 7 mps 747 mmHg 54%
    20:00 +11°C° 0 mm 6 mps 747 mmHg 58%
    21:00 +10°C° 0.1 mm 5 mps 746 mmHg 62%
    22:00 +10°C° 0.1 mm 4 mps 745 mmHg 67%
    23:00 +10°C° 0.1 mm 3 mps 745 mmHg 71%
    Show more